Terminal Aerodrome Forecast
Issued by NWS Pueblo, CO

Home | Current Version | Previous Version | Text Only | Print | Product List | Glossary On
Versions: 1 2 3 4 5 6 7 8 9 10 11 12 13 14 15 16 17 18 19 20 21 22 23 24 25 26 27 28 29 30 31 32 33 34 35
000
FTUS45 KPUB 012320
TAFALS
TAF
KALS 012320Z 0200/0224 08007KT P6SM VCTS SCT040CB BKN080
     FM020400 VRB05KT P6SM SCT040 BKN070
     FM020700 VRB04KT P6SM BKN050
     FM021800 12008KT P6SM VCTS SCT050CB BKN120=

USA.gov is the U.S. government's official web portal to all federal, state and local government web resources and services.